Location: Ahstedt
(52.2048°N, 10.1060°E)
Time: 23:34:49
(UTC+00:00)

Cosmos 540 Rocket - Pass Details

Date: 11 April 2026
Orbit: 734 x 748 km, 74.1° (Epoch: 15 May)

Event Time Altitude Azimuth Distance (km) Brightness Sun altitude
Rises 02:29:41 0° 147° (SSE) 3,170 6.6 -17.3°
Reaches altitude 10° 02:33:10 10° 122° (ESE) 2,257 6.1 -16.9°
Maximum altitude 02:35:39 14° 93° (E) 2,011 6.3 -16.6°
Drops below altitude 10° 02:38:10 10° 63° (ENE) 2,269 7.2 -16.3°
Sets 02:41:40 0° 39° (NE) 3,202 8.3 -15.9°
